Weather in Tsivilsk

Russia / Chuvash Republic     55°51′54″N   47°28′22″E
temp.,
°C
wind,
m/s
gust,
m/s
humid.,
%
clouds,
%
prec.,
mm/h
press.,
hPa
HPBL,
m
20 may, fri
fri2000:00+2w11875 0.0 101010
03:00+1wnw229153 0.0 101020
06:00+4nnw3583100 0.0 1010270
09:00+7nw566499 0.5 10111288
12:00+8nnw886375 0.8 10111632
15:00+4n698747 1.1 1012710
18:00+7nnw587318 0.3 1011988
21:00+3nw4118984 0.5 1011306
21 may, sat
sat2100:00+2nnw511955 0.0 1011298
03:000nnw41097100 0.0 1010257
06:00+3nnw6108998 0.0 1010551
09:00+5nnw697394 0.1 10101164
12:00+8nnw786185 0.5 10091664
15:00+8nnw575683 0.8 10081794
18:00+7n3574100 0.3 1008683
21:00+3nnw228791 0.6 100829
22 may, sun
sun2200:00+1nw229186 0.0 100620
03:000nw22935 0.0 100629
06:00+3nw35865 0.0 1004290
09:00+6nw566688 0.2 10031409
12:00+7nnw565999 0.4 10011696
15:00+7nnw555899 0.8 10011373
18:00+6n456656 0.1 10011044
21:00+1nw12795 0.1 100010
23 may, mon
mon2300:000w338664 0.0 99945
03:000wnw369487 0.0 998115
06:00+2wnw578686 0.0 998525
09:00+4wnw5781100 0.3 998843
12:00+6wnw6872100 0.4 9981273
15:00+8w7968100 1.1 9991453
18:00+5w488899 0.9 999935
21:00+3wsw2495100 1.4 1000130
24 may, tue
tue2400:00+2wnw3799100 1.0 1000476
03:00+1w4799100 1.5 1001301
06:00+1wnw479695 0.4 1002509
09:00+3wnw4581100 0.6 1004829
12:00+5w457099 0.2 10051169
15:00+6wnw446498 0.4 10061166
18:00+6nw3473100 0.2 1008879
21:00+3wnw338692 0.3 100948